| time (UTC) | temp F | wind direction | speed MPH | gust MPH | rain 1hr in | rain 24hr in | rain mn in | humidity % | barometer mb |
| 20260901233620 | 83 | 159 | 2.0 | 3.0 | 0.00 | 0.00 | 0.00 | 1 | 1006.3 |
| 20260901232617 | 83 | 202 | 5.0 | 6.0 | 0.00 | 0.00 | 0.00 | 1 | 1006.4 |
| 20260901231632 | 83 | 222 | 3.0 | 5.0 | 0.00 | 0.00 | 0.00 | 1 | 1006.4 |
| 20260901230648 | 83 | 206 | 2.0 | 3.0 | 0.00 | 0.00 | 0.00 | 1 | 1006.6 |
| 20260901225624 | 82 | 231 | 2.0 | 4.0 | 0.00 | 0.00 | 0.00 | 1 | 1006.6 |
| 20260901224620 | 82 | 206 | 3.0 | 4.0 | 0.00 | 0.00 | 0.00 | 1 | 1006.5 |
| 20260901223617 | 81 | 205 | 4.0 | 6.0 | 0.00 | 0.00 | 0.00 | 1 | 1006.8 |
| 20260901222633 | 80 | 210 | 6.0 | 9.0 | 0.00 | 0.00 | 0.00 | 1 | 1006.8 |
| 20260901221629 | 79 | 209 | 5.0 | 9.0 | 0.00 | 0.00 | 0.00 | 1 | 1006.9 |
| 20260901220625 | 79 | 204 | 4.0 | 5.0 | 0.00 | 0.00 | 0.00 | 1 | 1007.0 |
| 20260901215621 | 80 | 185 | 5.0 | 9.0 | 0.00 | 0.00 | 0.00 | 1 | 1006.9 |
| 20260901214617 | 79 | 191 | 4.0 | 5.0 | 0.00 | 0.00 | 0.00 | 1 | 1007.2 |
| 20260901213633 | 79 | 178 | 6.0 | 9.0 | 0.00 | 0.00 | 0.00 | 1 | 1007.3 |
| 20260901212629 | 79 | 193 | 2.0 | 4.0 | 0.00 | 0.00 | 0.00 | 1 | 1007.4 |
| 20260901211625 | 78 | 135 | 0.0 | 1.0 | 0.00 | 0.00 | 0.00 | 1 | 1007.5 |
| 20260901210621 | 77 | 188 | 1.0 | 3.0 | 0.00 | 0.00 | 0.00 | 1 | 1007.7 |
| 20260901205618 | 75 | 193 | 2.0 | 4.0 | 0.00 | 0.00 | 0.00 | 1 | 1007.9 |
| 20260901204634 | 76 | 176 | 5.0 | 6.0 | 0.00 | 0.00 | 0.00 | 1 | 1007.9 |
| 20260901203631 | 75 | 189 | 2.0 | 3.0 | 0.00 | 0.00 | 0.00 | 1 | 1008.0 |
| 20260901202627 | 75 | 182 | 4.0 | 6.0 | 0.00 | 0.00 | 0.00 | 1 | 1008.2 |
| 20260901201623 | 75 | 198 | 6.0 | 10.0 | 0.00 | 0.00 | 0.00 | 1 | 1008.3 |
| 20260901200619 | 76 | 207 | 7.0 | 11.0 | 0.00 | 0.00 | 0.00 | 1 | 1008.4 |
| 20260901195636 | 74 | 204 | 6.0 | 9.0 | 0.00 | 0.00 | 0.00 | 1 | 1008.7 |
| 20260901194632 | 71 | 228 | 4.0 | 6.0 | 0.00 | 0.00 | 0.00 | 1 | 1008.7 |
| 20260901193629 | 72 | 184 | 6.0 | 7.0 | 0.00 | 0.00 | 0.00 | 1 | 1008.9 |
| 20260901192624 | 72 | 184 | 3.0 | 6.0 | 0.00 | 0.00 | 0.00 | 1 | 1009.0 |
| 20260901191621 | 72 | 175 | 3.0 | 5.0 | 0.00 | 0.00 | 0.00 | 1 | 1009.1 |
| 20260901190636 | 72 | 182 | 2.0 | 4.0 | 0.00 | 0.00 | 0.00 | 1 | 1008.8 |
| 20260901185653 | 71 | 172 | 4.0 | 6.0 | 0.00 | 0.00 | 0.00 | 1 | 1008.8 |
| 20260901184630 | 71 | 182 | 3.0 | 4.0 | 0.00 | 0.00 | 0.00 | 1 | 1008.7 |
| 20260901183645 | 70 | 186 | 3.0 | 5.0 | 0.00 | 0.00 | 0.00 | 1 | 1008.9 |
| 20260901182621 | 70 | 206 | 6.0 | 10.0 | 0.00 | 0.00 | 0.00 | 1 | 1009.0 |
| 20260901181617 | 70 | 172 | 7.0 | 10.0 | 0.00 | 0.00 | 0.00 | 1 | 1009.2 |
| 20260901180634 | 70 | 172 | 4.0 | 6.0 | 0.00 | 0.00 | 0.00 | 1 | 1008.9 |
| 20260901175630 | 70 | 205 | 3.0 | 5.0 | 0.00 | 0.00 | 0.00 | 1 | 1009.0 |
| 20260901174626 | 70 | 185 | 5.0 | 6.0 | 0.00 | 0.00 | 0.00 | 1 | 1009.2 |
| 20260901173622 | 71 | 182 | 2.0 | 3.0 | 0.00 | 0.00 | 0.00 | 1 | 1009.2 |
| 20260901172618 | 70 | 112 | 1.0 | 2.0 | 0.00 | 0.00 | 0.00 | 1 | 1009.3 |
| 20260901171634 | 71 | 161 | 2.0 | 3.0 | 0.00 | 0.00 | 0.00 | 1 | 1009.3 |
| 20260901170630 | 71 | 176 | 1.0 | 2.0 | 0.00 | 0.00 | 0.00 | 1 | 1009.1 |
| 20260901165647 | 70 | 0.0 | 0.0 | 0.00 | 0.00 | 0.00 | 1 | 1008.8 | |
| 20260901164703 | 69 | 0.0 | 0.0 | 0.00 | 0.00 | 0.00 | 1 | 1008.9 | |
| 20260901163619 | 69 | 0.0 | 0.0 | 0.00 | 0.00 | 0.00 | 1 | 1009.0 | |
| 20260901162635 | 69 | 48 | 2.0 | 2.0 | 0.00 | 0.00 | 0.00 | 1 | 1008.9 |
| 20260901161651 | 68 | 0.0 | 0.0 | 0.00 | 0.00 | 0.00 | 1 | 1009.0 | |
| 20260901160627 | 68 | 121 | 0.0 | 1.0 | 0.00 | 0.00 | 0.00 | 1 | 1009.1 |
| 20260901155624 | 69 | 0.0 | 2.0 | 0.00 | 0.00 | 0.00 | 1 | 1009.0 | |
| 20260901154619 | 68 | 54 | 1.0 | 2.0 | 0.00 | 0.00 | 0.00 | 1 | 1008.8 |
| 20260901153619 | 68 | 69 | 1.0 | 2.0 | 0.00 | 0.00 | 0.00 | 1 | 1008.8 |
| 20260901152633 | 67 | 52 | 1.0 | 2.0 | 0.00 | 0.00 | 0.00 | 1 | 1008.6 |
| 20260901151629 | 67 | 44 | 1.0 | 2.0 | 0.00 | 0.00 | 0.00 | 1 | 1008.7 |
| 20260901150625 | 66 | 0.0 | 0.0 | 0.00 | 0.00 | 0.00 | 1 | 1008.7 | |
| 20260901145641 | 65 | 0.0 | 0.0 | 0.00 | 0.00 | 0.00 | 1 | 1008.6 | |
| 20260901144618 | 64 | 320 | 2.0 | 2.0 | 0.00 | 0.00 | 0.00 | 1 | 1008.6 |
| 20260901143815 | 64 | 342 | 5.0 | 5.0 | 0.00 | 0.00 | 0.00 | 1 | 1008.5 |
| 20260901142631 | 64 | 262 | 0.0 | 2.0 | 0.00 | 0.00 | 0.00 | 1 | 1008.5 |
| 20260901141627 | 63 | 278 | 1.0 | 2.0 | 0.00 | 0.00 | 0.00 | 1 | 1008.5 |
| 20260901140623 | 63 | 190 | 3.0 | 4.0 | 0.00 | 0.00 | 0.00 | 1 | 1008.3 |
| 20260901135639 | 62 | 155 | 1.0 | 3.0 | 0.00 | 0.00 | 0.00 | 1 | 1008.2 |
| 20260901134636 | 62 | 207 | 3.0 | 4.0 | 0.00 | 0.00 | 0.00 | 1 | 1008.3 |
| 20260901133632 | 62 | 0.0 | 3.0 | 0.00 | 0.00 | 0.00 | 1 | 1008.0 | |
| 20260901132628 | 62 | 214 | 1.0 | 3.0 | 0.00 | 0.00 | 0.00 | 1 | 1008.2 |
| 20260901131625 | 63 | 202 | 2.0 | 3.0 | 0.00 | 0.00 | 0.00 | 1 | 1008.3 |
| 20260901130620 | 63 | 200 | 2.0 | 4.0 | 0.00 | 0.00 | 0.00 | 1 | 1008.3 |
| 20260901125620 | 63 | 10 | 2.0 | 3.0 | 0.00 | 0.00 | 0.00 | 1 | 1008.1 |
| 20260901124633 | 63 | 0.0 | 1.0 | 0.00 | 0.00 | 0.00 | 1 | 1007.9 | |
| 20260901123629 | 64 | 132 | 0.0 | 1.0 | 0.00 | 0.00 | 0.00 | 1 | 1007.7 |
| 20260901122624 | 64 | 270 | 1.0 | 2.0 | 0.00 | 0.00 | 0.00 | 1 | 1008.1 |
| 20260901121641 | 64 | 0.0 | 0.0 | 0.00 | 0.00 | 0.00 | 1 | 1007.9 | |
| 20260901120618 | 64 | 329 | 3.0 | 4.0 | 0.00 | 0.00 | 0.00 | 1 | 1007.9 |
| 20260901115634 | 64 | 0.0 | 1.0 | 0.00 | 0.00 | 0.00 | 1 | 1008.0 | |
| 20260901114652 | 63 | 285 | 3.0 | 4.0 | 0.00 | 0.00 | 0.00 | 1 | 1007.9 |
| 20260901113627 | 64 | 246 | 1.0 | 1.0 | 0.00 | 0.00 | 0.00 | 1 | 1008.2 |
| 20260901112623 | 64 | 0.0 | 1.0 | 0.00 | 0.00 | 0.00 | 1 | 1008.0 | |
| 20260901111621 | 64 | 17 | 0.0 | 2.0 | 0.00 | 0.00 | 0.00 | 1 | 1007.7 |
| 20260901110656 | 64 | 26 | 2.0 | 2.0 | 0.00 | 0.00 | 0.00 | 1 | 1007.9 |
| 20260901105626 | 64 | 326 | 1.0 | 1.0 | 0.00 | 0.00 | 0.00 | 1 | 1007.8 |
| 20260901104622 | 65 | 0.0 | 1.0 | 0.00 | 0.00 | 0.00 | 1 | 1008.0 | |
| 20260901103639 | 64 | 324 | 0.0 | 1.0 | 0.00 | 0.00 | 0.00 | 1 | 1008.1 |
| 20260901102635 | 64 | 330 | 1.0 | 2.0 | 0.00 | 0.00 | 0.00 | 1 | 1008.1 |
| 20260901101632 | 65 | 317 | 3.0 | 3.0 | 0.00 | 0.00 | 0.00 | 1 | 1008.2 |
| 20260901100629 | 65 | 298 | 3.0 | 4.0 | 0.00 | 0.00 | 0.00 | 1 | 1008.2 |
| 20260901095645 | 65 | 275 | 1.0 | 2.0 | 0.00 | 0.00 | 0.00 | 1 | 1008.3 |
| 20260901094621 | 65 | 301 | 4.0 | 4.0 | 0.00 | 0.00 | 0.00 | 1 | 1008.3 |
| 20260901093617 | 65 | 273 | 2.0 | 2.0 | 0.00 | 0.00 | 0.00 | 1 | |
| 20260901092634 | 65 | 309 | 2.0 | 3.0 | 0.00 | 0.00 | 0.00 | 1 | 1008.2 |
| 20260901091631 | 66 | 306 | 2.0 | 3.0 | 0.00 | 0.00 | 0.00 | 1 | 1008.1 |
| 20260901090627 | 64 | 215 | 1.0 | 2.0 | 0.00 | 0.00 | 0.00 | 1 | 1008.2 |
| 20260901085623 | 63 | 303 | 3.0 | 4.0 | 0.00 | 0.00 | 0.00 | 1 | 1008.0 |
| 20260901084620 | 63 | 306 | 3.0 | 3.0 | 0.00 | 0.00 | 0.00 | 1 | 1008.3 |
| 20260901083618 | 64 | 337 | 2.0 | 2.0 | 0.00 | 0.00 | 0.00 | 1 | 1008.2 |
| 20260901082653 | 64 | 298 | 3.0 | 3.0 | 0.00 | 0.00 | 0.00 | 1 | 1008.3 |
| 20260901081629 | 64 | 299 | 3.0 | 3.0 | 0.00 | 0.00 | 0.00 | 1 | 1008.4 |
| 20260901080705 | 63 | 274 | 2.0 | 4.0 | 0.00 | 0.00 | 0.00 | 1 | 1008.5 |
| 20260901075702 | 64 | 316 | 3.0 | 3.0 | 0.00 | 0.00 | 0.00 | 1 | 1008.5 |
| 20260901074639 | 64 | 292 | 2.0 | 2.0 | 0.00 | 0.00 | 0.00 | 1 | 1008.5 |
| 20260901073635 | 65 | 284 | 1.0 | 2.0 | 0.00 | 0.00 | 0.00 | 1 | 1008.5 |
| 20260901072631 | 65 | 304 | 3.0 | 4.0 | 0.00 | 0.00 | 0.00 | 1 | 1008.4 |
| 20260901071627 | 66 | 302 | 3.0 | 4.0 | 0.00 | 0.00 | 0.00 | 1 | 1008.5 |
| 20260901070623 | 65 | 287 | 2.0 | 3.0 | 0.00 | 0.00 | 0.00 | 1 | 1008.5 |
| 20260901065620 | 65 | 309 | 2.0 | 4.0 | 0.00 | 0.00 | 0.00 | 1 | 1008.5 |
| 20260901064617 | 66 | 317 | 3.0 | 4.0 | 0.00 | 0.00 | 0.00 | 1 | 1008.4 |
| 20260901063634 | 67 | 322 | 3.0 | 4.0 | 0.00 | 0.00 | 0.00 | 1 | 1008.7 |
| 20260901062630 | 68 | 342 | 3.0 | 4.0 | 0.00 | 0.00 | 0.00 | 1 | 1008.7 |
| 20260901061627 | 69 | 316 | 3.0 | 4.0 | 0.00 | 0.00 | 0.00 | 1 | 1008.7 |
| 20260901060625 | 70 | 318 | 3.0 | 4.0 | 0.00 | 0.00 | 0.00 | 1 | 1008.7 |
| 20260901055620 | 71 | 339 | 4.0 | 5.0 | 0.00 | 0.00 | 0.00 | 1 | 1008.7 |
| 20260901054637 | 72 | 346 | 3.0 | 4.0 | 0.00 | 0.00 | 0.00 | 1 | 1008.8 |
| 20260901053714 | 72 | 355 | 3.0 | 4.0 | 0.00 | 0.00 | 0.00 | 1 | 1008.9 |
| 20260901052630 | 72 | 350 | 4.0 | 4.0 | 0.00 | 0.00 | 0.00 | 1 | 1009.0 |
| 20260901051627 | 73 | 356 | 2.0 | 3.0 | 0.00 | 0.00 | 0.00 | 1 | 1009.0 |
| 20260901050624 | 72 | 345 | 2.0 | 2.0 | 0.00 | 0.00 | 0.00 | 1 | 1009.1 |
| 20260901045620 | 73 | 337 | 2.0 | 3.0 | 0.00 | 0.00 | 0.00 | 1 | 1009.1 |
| 20260901044616 | 73 | 332 | 2.0 | 3.0 | 0.00 | 0.00 | 0.00 | 1 | 1009.2 |
| 20260901043633 | 73 | 339 | 4.0 | 5.0 | 0.00 | 0.00 | 0.00 | 1 | 1009.1 |
| 20260901042630 | 73 | 321 | 3.0 | 4.0 | 0.00 | 0.00 | 0.00 | 1 | 1009.1 |
| 20260901041708 | 74 | 324 | 3.0 | 4.0 | 0.00 | 0.00 | 0.00 | 1 | 1009.0 |
| 20260901040624 | 74 | 328 | 3.0 | 5.0 | 0.00 | 0.00 | 0.00 | 1 | 1009.0 |
| 20260901035620 | 73 | 332 | 5.0 | 7.0 | 0.00 | 0.00 | 0.00 | 1 | 1009.0 |
| 20260901034617 | 73 | 320 | 6.0 | 7.0 | 0.00 | 0.00 | 0.00 | 1 | 1009.1 |
| 20260901033633 | 74 | 326 | 5.0 | 7.0 | 0.00 | 0.00 | 0.00 | 1 | 1009.1 |
| 20260901032630 | 74 | 320 | 4.0 | 5.0 | 0.00 | 0.00 | 0.00 | 1 | 1008.8 |
| 20260901031627 | 74 | 334 | 6.0 | 7.0 | 0.00 | 0.00 | 0.00 | 1 | 1008.9 |
| 20260901030624 | 75 | 336 | 5.0 | 6.0 | 0.00 | 0.00 | 0.00 | 1 | 1009.0 |
| 20260901025620 | 76 | 335 | 5.0 | 6.0 | 0.00 | 0.00 | 0.00 | 1 | 1008.9 |
| 20260901024636 | 76 | 337 | 5.0 | 6.0 | 0.00 | 0.00 | 0.00 | 1 | 1008.9 |
| 20260901023633 | 76 | 327 | 3.0 | 4.0 | 0.00 | 0.00 | 0.00 | 1 | 1008.9 |
| 20260901022630 | 78 | 318 | 3.0 | 3.0 | 0.00 | 0.00 | 0.00 | 1 | 1009.1 |
| 20260901021627 | 80 | 344 | 3.0 | 4.0 | 0.00 | 0.00 | 0.00 | 1 | 1008.8 |
| 20260901020623 | 82 | 6 | 4.0 | 6.0 | 0.00 | 0.00 | 0.00 | 1 | 1008.9 |
| 20260901015620 | 83 | 359 | 5.0 | 6.0 | 0.00 | 0.00 | 0.00 | 1 | 1009.0 |
| 20260901014638 | 83 | 1 | 4.0 | 6.0 | 0.00 | 0.00 | 0.00 | 1 | 1009.1 |
| 20260901013634 | 84 | 4 | 5.0 | 6.0 | 0.00 | 0.00 | 0.00 | 1 | 1009.2 |
| 20260901012630 | 84 | 27 | 5.0 | 7.0 | 0.00 | 0.00 | 0.00 | 1 | 1009.3 |
| 20260901011627 | 85 | 10 | 6.0 | 8.0 | 0.00 | 0.00 | 0.00 | 1 | 1009.3 |
| 20260901010624 | 85 | 11 | 5.0 | 8.0 | 0.00 | 0.00 | 0.00 | 1 | 1009.6 |
| 20260901005620 | 85 | 15 | 7.0 | 10.0 | 0.00 | 0.00 | 0.00 | 1 | 1009.6 |
| 20260901004637 | 85 | 17 | 4.0 | 5.0 | 0.00 | 0.00 | 0.00 | 1 | 1009.7 |
| 20260901003634 | 85 | 19 | 7.0 | 11.0 | 0.00 | 0.00 | 0.00 | 1 | 1009.8 |
| 20260901002630 | 85 | 11 | 7.0 | 9.0 | 0.00 | 0.00 | 0.00 | 1 | 1009.9 |
| 20260901001627 | 84 | 9 | 5.0 | 7.0 | 0.00 | 0.00 | 0.00 | 1 | 1010.1 |
| 20260901000625 | 85 | 34 | 5.0 | 8.0 | 0.00 | 0.00 | 0.00 | 1 | 1010.3 |
| 20260831235619 | 85 | 42 | 5.0 | 7.0 | 0.00 | 0.00 | 0.00 | 1 | 1010.4 |
| 20260831234621 | 84 | 24 | 7.0 | 10.0 | 0.00 | 0.00 | 0.00 | 1 | 1010.6 |